Location: Goettingen
(51.5300°N, 9.9433°E)
Time: 07:33:47
(UTC+02:00)

ISS - Pass Details

Date: 22 May 2017
Orbit: 401 x 407 km, 51.6° (Epoch: 23 September)

Event Time Altitude Azimuth Distance (km) Brightness Sun altitude
Exits shadow 00:41:53 34° 108° (ESE) 704 -2.9 -17.7°
Drops below altitude 10° 00:44:07 10° 82° (E) 1,490 -1.0 -17.7°
Enters shadow 01:56:44 -36° 263° (W) 8,188 2.7 -17.6°
Maximum altitude 02:17:23 87° 355° (N) 420 -3.8 -16.9°
